This is the latest recevied weather packets stored in our database for station/object N4DWK. If no packets are shown the sender has not sent any weather packets the latest 10 day(s).
| Time | Temp. | Humidity | Pressure | Rain* | Wind** | Luminosity | Snow |
|---|---|---|---|---|---|---|---|
| 1778104506 | 21.67° C | 78% | 1009.5 hPa | 0 mm | - | 56 W/m² | - |
| 1778104206 | 21.67° C | 78% | 1009.5 hPa | 0 mm | - | 62 W/m² | - |
| 1778103905 | 21.67° C | 78% | 1009.5 hPa | 0 mm | - | 70 W/m² | - |
| 1778103606 | 21.67° C | 78% | 1009.6 hPa | 0 mm | - | 79 W/m² | - |
| 1778103306 | 21.67° C | 78% | 1009.6 hPa | 0 mm | - | 86 W/m² | - |
| 1778103006 | 21.67° C | 78% | 1009.6 hPa | 0 mm | - | 100 W/m² | - |
| 1778102706 | 21.67° C | 79% | 1009.6 hPa | 0 mm | - | 118 W/m² | - |
| 1778102406 | 21.67° C | 79% | 1009.8 hPa | 0 mm | - | 169 W/m² | - |
| 1778102106 | 21.67° C | 79% | 1009.8 hPa | 0 mm | - | 109 W/m² | - |
| 1778101806 | 21.67° C | 80% | 1009.7 hPa | 0 mm | - | 137 W/m² | - |
| 1778101506 | 21.67° C | 80% | 1009.6 hPa | 0 mm | - | 113 W/m² | - |
| 1778101206 | 21.67° C | 81% | 1009.6 hPa | 0 mm | - | 120 W/m² | - |
| 1778100906 | 21.67° C | 80% | 1009.7 hPa | 0 mm | - | 137 W/m² | - |
| 1778100606 | 21.67° C | 82% | 1009.8 hPa | 0 mm | - | 98 W/m² | - |
| 1778100305 | 21.67° C | 82% | 1009.8 hPa | 0 mm | - | 153 W/m² | - |
| 1778100006 | 21.67° C | 83% | 1009.7 hPa | 0 mm | - | 171 W/m² | - |
| 1778099706 | 21.11° C | 85% | 1009.6 hPa | 0 mm | - | 221 W/m² | - |
| 1778099406 | 20.56° C | 85% | 1009.5 hPa | 0 mm | - | 149 W/m² | - |
| 1778099106 | 20.56° C | 85% | 1009.6 hPa | 0 mm | - | 86 W/m² | - |
| 1778098807 | 20.56° C | 85% | 1009.7 hPa | 0 mm | - | 63 W/m² | - |
| 1778098507 | 20.56° C | 85% | 1009.7 hPa | 0 mm | - | 51 W/m² | - |
| 1778098207 | 20.56° C | 85% | 1009.8 hPa | 0 mm | - | 47 W/m² | - |
| 1778097906 | 20.56° C | 85% | 1009.9 hPa | 0 mm | - | 49 W/m² | - |
| 1778097607 | 20° C | 85% | 1009.8 hPa | 0.25 mm | - | 77 W/m² | - |
| 1778097306 | 20° C | 86% | 1009.7 hPa | 0.25 mm | - | 84 W/m² | - |
* Rain latest hour (hover to see other rain measurements)
** Current wind speed in m/s (hover to see current wind gust speed)